Wind_Speed
10 11 11 11 12 13 13 13 13 13 13 13 13 13 13 12 12 13 14 15 15 16 17 17 17 18 19 20 21 20 20 19 18 17 17 16 16 15 13 12 10 8 6
10 10 10 10 11 12 13 13 13 13 13 14 14 14 14 14 14 13 14 15 16 16 16 17 19 19 20 21 21 22 22 22 21 20 19 18 18 17 16 14 12 10 8
8 8 9 9 10 11 11 12 12 12 13 13 13 13 14 14 14 14 15 15 16 17 17 17 18 19 20 22 22 23 24 24 23 22 21 21 20 19 18 17 15 13 11
7 8 9 9 10 10 10 11 11 11 12 13 13 13 13 14 14 14 15 16 17 17 17 17 18 18 20 22 22 23 24 25 25 25 24 23 22 21 21 20 18 16 14
7 7 8 9 10 10 10 10 11 11 11 11 12 12 12 13 13 14 15 16 17 17 18 19 19 19 20 21 22 22 23 27 27 27 27 26 25 24 23 22 21 19 17
6 7 8 8 9 10 10 10 11 11 11 11 11 11 12 12 12 13 13 15 16 17 18 19 19 20 20 21 21 22 22 25 28 29 29 29 28 27 26 25 24 22 21
6 7 7 8 9 10 10 10 10 11 11 11 11 12 12 12 12 12 13 14 15 16 17 18 19 20 21 21 22 23 23 24 27 29 30 31 31 30 30 29 27 25 24
6 7 8 9 9 10 10 10 10 10 11 11 12 12 12 12 12 12 13 14 15 16 17 18 19 20 21 22 23 24 24 24 26 28 30 31 33 33 33 32 31 29 27
6 7 8 9 10 10 10 10 10 10 11 11 12 12 12 13 13 13 13 14 15 16 17 18 19 20 22 23 24 25 25 26 27 27 28 30 32 34 34 34 34 33 31
7 7 8 9 9 10 10 10 11 11 11 12 13 13 13 14 14 14 15 15 16 16 17 19 19 20 22 23 24 25 26 26 28 29 30 30 32 34 35 35 36 36 35
7 7 8 8 9 10 11 11 11 12 12 13 14 14 15 15 16 16 16 17 17 18 19 20 20 21 22 23 24 25 26 27 28 30 31 32 32 33 35 36 37 37 37
7 8 9 9 10 11 11 12 13 13 13 14 15 16 16 17 17 18 18 19 19 20 21 22 23 23 24 25 26 27 28 28 29 31 32 33 34 34 34 36 37 38 39
8 9 9 10 11 11 12 13 14 14 15 16 17 17 17 18 19 20 20 21 21 22 23 24 25 26 27 27 28 29 29 30 31 32 33 34 35 36 36 37 37 39 40
10 10 11 12 12 13 14 15 16 17 17 18 18 19 19 20 21 21 22 23 24 25 26 26 27 28 29 30 31 32 33 33 33 34 35 36 36 38 38 38 39 39 40
12 13 13 14 15 16 17 18 18 19 19 20 20 21 22 22 23 23 23 24 25 26 28 29 29 29 30 32 34 35 36 37 37 37 38 38 38 40 41 41 40 41 41
15 16 16 17 18 19 19 20 21 21 22 23 23 24 25 25 25 25 25 26 26 27 29 31 31 32 33 34 35 37 39 40 41 41 42 42 42 42 42 43 43 43 43
17 18 19 20 20 21 22 23 24 24 25 25 26 27 27 27 28 28 28 28 28 29 29 31 33 33 34 35 37 38 39 41 43 44 44 45 46 46 45 45 45 45 45
20 21 22 22 23 24 25 26 26 27 27 27 28 29 29 30 30 30 30 30 30 31 31 32 33 35 35 36 37 38 39 41 43 45 47 48 49 49 49 48 48 48 48
23 24 24 25 26 27 27 28 28 29 29 30 30 31 32 32 32 32 32 32 32 33 33 33 34 35 36 37 37 37 39 40 42 44 47 49 50 51 52 51 51 50 50
26 27 27 27 28 29 30 30 30 31 32 32 33 33 33 33 33 33 34 34 34 34 35 35 35 36 37 38 38 38 38 39 41 43 45 48 50 52 53 53 53 53 53
29 30 30 31 31 31 32 32 33 33 34 34 35 34 34 34 35 35 35 35 35 35 36 36 36 37 38 39 39 39 38 39 40 41 43 46 48 51 52 54 55 55 55
32 32 33 33 34 34 34 35 36 36 36 37 37 36 36 36 36 37 37 37 37 37 38 38 37 37 38 39 39 39 38 38 39 41 42 43 46 48 51 53 54 55 56
35 35 35 36 36 37 37 38 39 39 38 39 39 39 38 38 38 38 38 38 38 39 39 39 38 39 39 39 39 39 38 38 38 40 41 41 43 45 47 50 52 54 55
37 38 39 39 39 39 40 41 42 41 41 41 41 41 41 40 40 40 40 40 40 40 41 40 39 39 39 39 39 38 38 38 38 39 40 39 41 43 45 47 49 51 53
40 41 41 41 42 42 44 45 45 44 43 43 44 44 44 43 43 43 42 41 41 41 41 41 40 39 39 39 39 38 38 38 37 38 39 39 40 42 43 45 47 49 51
43 44 45 45 46 46 47 48 49 48 47 47 46 47 46 45 45 45 44 43 42 42 42 42 41 40 39 39 39 38 38 38 37 36 38 39 39 41 41 43 45 47 49
Wind_Direction
294 293 294 294 294 294 294 293 291 291 290 290 289 286 282 278 273 266 264 263 261 258 256 252 248 246 240 233 228 226 223 222 220 219 217 216 215 213 212 210 209 211 212
297 297 298 299 298 296 294 292 292 292 291 290 289 286 283 281 278 272 267 264 260 259 260 257 251 248 242 237 232 229 227 225 224 222 220 218 217 216 215 213 213 213 215
300 302 304 305 303 301 299 297 296 295 294 292 290 288 285 283 280 274 269 265 261 259 259 259 255 251 246 242 238 233 230 228 226 225 223 221 219 219 218 216 216 216 217
304 305 306 306 306 305 303 303 303 300 299 297 293 289 287 284 281 277 272 267 263 260 259 257 256 255 250 245 242 238 234 231 228 227 225 223 222 222 221 220 219 220 220
306 304 304 308 310 309 307 306 305 304 302 301 298 294 289 285 281 278 273 269 265 262 258 256 256 256 253 249 245 243 242 235 232 230 228 226 225 224 224 223 223 223 224
312 311 313 318 320 319 317 313 310 309 307 304 302 299 294 289 284 282 276 271 266 262 259 257 255 255 254 255 251 249 247 241 236 233 231 229 227 226 226 226 225 225 226
317 318 322 326 328 327 324 321 317 314 312 310 307 303 300 295 290 284 278 274 269 265 261 259 257 257 254 255 255 254 251 247 242 238 236 233 230 228 228 228 228 227 228
325 329 330 329 329 329 328 326 323 320 316 314 312 309 305 301 296 290 283 277 272 268 265 263 260 258 256 256 255 254 252 250 246 243 241 238 235 232 230 229 230 229 229
330 332 333 333 332 331 330 328 327 325 322 319 315 313 311 306 301 295 290 284 278 274 270 267 264 261 259 258 256 254 253 252 248 246 244 242 239 236 233 231 231 231 231
334 334 334 336 335 335 333 331 329 327 326 323 320 316 313 309 305 299 293 288 283 279 275 271 267 265 263 261 258 256 254 253 251 248 247 244 242 239 237 234 233 232 233
327 329 331 333 334 334 333 331 330 328 325 322 320 317 314 311 306 302 297 292 288 283 279 275 271 267 264 263 261 259 257 255 252 250 249 247 244 242 240 238 236 234 234
318 321 324 327 328 329 329 329 329 326 323 321 318 315 313 310 307 303 299 294 290 287 283 279 275 271 267 265 262 261 259 257 255 252 250 248 247 245 243 242 239 237 235
312 315 318 319 319 321 322 323 323 323 322 321 319 316 313 310 307 304 300 297 293 290 286 282 278 274 270 267 264 262 259 258 256 254 251 249 248 246 245 244 242 240 237
306 309 310 310 311 313 314 315 316 316 317 317 317 316 313 310 306 302 299 297 295 293 289 284 280 276 272 269 266 263 261 259 257 254 252 250 248 247 246 246 244 241 239
299 301 303 305 306 307 309 310 311 312 312 312 312 312 311 309 306 303 300 297 295 294 291 288 284 279 275 271 267 264 262 260 258 255 253 251 249 247 245 245 245 243 240
295 298 300 302 304 304 305 307 308 308 308 308 308 309 308 308 306 304 301 298 296 294 292 290 286 282 278 274 270 266 263 260 259 257 254 252 250 249 246 245 244 243 241
292 295 297 298 299 300 301 302 303 305 306 306 306 307 307 306 305 304 302 299 297 295 294 292 289 286 283 279 274 269 265 261 259 257 255 253 251 249 247 246 245 243 242
290 292 294 295 296 297 298 299 301 303 304 305 306 307 306 305 304 304 302 300 298 297 295 293 291 289 287 283 278 273 269 265 261 258 255 253 251 249 247 246 245 243 242
290 291 293 294 295 296 296 298 299 301 302 303 304 305 305 305 304 304 302 301 299 298 296 295 293 292 290 286 282 278 274 270 265 261 257 254 251 249 247 246 244 243 243
289 290 292 293 294 295 296 297 298 300 301 302 303 303 304 304 303 303 303 301 300 299 298 297 295 293 290 288 284 280 276 273 269 264 260 256 253 250 248 246 245 243 242
290 291 291 292 293 294 295 296 298 300 301 302 302 302 302 302 303 303 302 301 301 300 299 298 297 294 291 288 285 282 278 275 272 268 263 258 254 251 249 246 245 243 242
290 291 292 292 293 294 294 296 298 299 300 301 301 302 301 301 301 301 301 300 300 300 300 299 298 295 292 288 285 283 279 276 273 269 265 260 255 252 250 247 245 244 243
290 290 292 293 294 295 295 296 297 298 298 299 300 300 300 300 300 300 299 299 299 299 300 299 297 295 292 289 285 283 280 277 273 269 266 261 257 253 251 248 246 244 243
290 291 292 293 294 295 295 296 295 295 296 297 298 298 299 299 299 299 298 298 298 298 298 298 297 294 292 288 285 283 281 277 273 269 265 261 259 256 252 250 247 245 244
290 291 292 292 293 294 295 294 294 294 295 296 296 296 296 296 297 297 297 297 296 296 297 297 296 294 291 288 285 282 280 277 273 269 266 261 258 256 254 251 249 246 244
290 290 290 290 291 292 293 293 293 293 294 294 294 294 294 294 295 295 296 295 295 295 295 295 294 293 290 287 285 282 279 276 272 268 266 263 259 256 253 252 250 248 245
Height
5875 5875 5875 5874 5874 5874 5873 5873 5873 5873 5873 5873 5873 5873 5873 5874 5874 5875 5875 5876 5878 5879 5879 5880 5882 5883 5885 5887 5890 5892 5894 5897 5899 5901 5903 5905 5908 5909 5911 5913 5914 5916 5917
5874 5873 5873 5873 5872 5872 5871 5871 5870 5870 5870 5870 5870 5870 5870 5871 5871 5872 5872 5873 5874 5875 5876 5877 5878 5879 5881 5883 5886 5888 5891 5893 5896 5898 5901 5903 5905 5907 5909 5911 5913 5914 5916
5872 5872 5871 5871 5870 5870 5869 5869 5868 5868 5868 5867 5867 5867 5867 5868 5868 5868 5869 5870 5871 5871 5872 5873 5874 5875 5877 5879 5881 5884 5886 5889 5892 5895 5897 5900 5902 5905 5907 5909 5911 5913 5914
5871 5870 5870 5869 5868 5868 5867 5867 5866 5865 5865 5865 5864 5864 5864 5865 5865 5865 5866 5866 5867 5868 5869 5870 5871 5871 5873 5874 5877 5879 5882 5885 5888 5891 5894 5896 5899 5901 5904 5906 5908 5910 5912
5869 5869 5868 5868 5867 5866 5865 5865 5864 5863 5863 5862 5862 5862 5861 5861 5861 5862 5862 5863 5863 5864 5865 5866 5867 5868 5869 5870 5872 5875 5877 5880 5883 5886 5889 5892 5895 5898 5900 5903 5905 5907 5910
5868 5867 5867 5866 5865 5864 5863 5863 5862 5861 5860 5860 5860 5859 5859 5859 5858 5858 5859 5859 5860 5860 5861 5862 5863 5864 5865 5866 5868 5870 5872 5874 5877 5880 5884 5887 5890 5893 5896 5899 5901 5904 5906
5866 5866 5865 5864 5864 5863 5862 5861 5860 5859 5858 5858 5857 5857 5856 5856 5855 5855 5855 5856 5856 5856 5857 5858 5859 5860 5861 5862 5863 5865 5867 5869 5872 5875 5878 5881 5884 5887 5891 5894 5897 5900 5902
5865 5864 5864 5863 5862 5861 5860 5859 5858 5857 5856 5856 5855 5854 5854 5854 5853 5852 5852 5852 5852 5852 5853 5854 5855 5855 5857 5858 5859 5860 5862 5863 5866 5869 5871 5875 5878 5881 5885 5888 5892 5895 5898
5864 5863 5862 5861 5861 5860 5859 5858 5857 5856 5854 5854 5853 5852 5851 5851 5850 5850 5849 5849 5849 5849 5849 5849 5850 5851 5852 5853 5854 5855 5857 5858 5860 5862 5865 5868 5871 5875 5878 5882 5885 5889 5892
5862 5862 5861 5860 5859 5858 5857 5856 5855 5854 5853 5851 5850 5849 5849 5848 5847 5846 5846 5845 5845 5845 5845 5845 5845 5846 5847 5847 5848 5849 5851 5853 5854 5856 5859 5861 5864 5868 5871 5875 5878 5882 5886
5861 5860 5859 5859 5858 5856 5855 5854 5853 5852 5850 5849 5848 5847 5845 5844 5843 5843 5842 5842 5841 5840 5840 5840 5840 5841 5841 5842 5842 5843 5845 5846 5848 5850 5852 5854 5857 5860 5863 5867 5870 5874 5878
5860 5859 5858 5857 5856 5855 5853 5852 5850 5849 5848 5846 5845 5844 5842 5841 5839 5838 5837 5836 5836 5835 5835 5835 5835 5835 5835 5836 5836 5837 5838 5840 5841 5843 5845 5847 5849 5852 5855 5858 5862 5866 5869
5858 5857 5856 5855 5853 5852 5851 5849 5848 5846 5845 5843 5842 5840 5838 5837 5835 5834 5832 5831 5830 5829 5829 5828 5828 5828 5828 5829 5829 5830 5831 5832 5833 5835 5837 5839 5841 5844 5846 5850 5853 5857 5860
5855 5854 5853 5852 5850 5849 5847 5846 5844 5843 5841 5839 5838 5836 5834 5832 5830 5829 5827 5825 5824 5822 5822 5821 5821 5820 5820 5820 5821 5822 5823 5824 5825 5827 5828 5830 5832 5835 5838 5841 5844 5847 5851
5852 5851 5849 5848 5847 5845 5844 5842 5840 5839 5837 5835 5833 5831 5829 5827 5825 5823 5821 5819 5818 5816 5814 5812 5812 5812 5812 5812 5812 5812 5813 5814 5815 5817 5819 5821 5823 5825 5828 5831 5834 5837 5841
5848 5847 5846 5844 5843 5841 5839 5837 5836 5834 5832 5830 5828 5825 5823 5821 5818 5816 5814 5812 5810 5809 5806 5804 5803 5802 5802 5801 5801 5802 5802 5803 5804 5806 5808 5810 5812 5815 5818 5821 5824 5827 5831
5844 5842 5841 5839 5838 5836 5834 5832 5830 5828 5826 5824 5821 5819 5816 5814 5811 5809 5806 5804 5802 5801 5799 5796 5793 5792 5791 5790 5790 5790 5790 5791 5792 5794 5795 5798 5800 5803 5806 5809 5813 5817 5820
5838 5837 5835 5834 5832 5830 5829 5826 5824 5822 5819 5817 5814 5812 5809 5806 5803 5801 5798 5796 5794 5792 5790 5787 5784 5781 5780 5779 5778 5777 5777 5778 5779 5780 5782 5784 5787 5790 5793 5797 5801 5804 5809
5832 5831 5829 5827 5826 5824 5822 5820 5817 5815 5812 5809 5807 5804 5801 5798 5795 5792 5789 5787 5784 5782 5779 5777 5774 5771 5769 5767 5766 5766 5765 5765 5766 5767 5768 5770 5773 5776 5779 5783 5787 5792 5796
5825 5824 5822 5820 5818 5816 5814 5812 5809 5807 5804 5801 5798 5796 5792 5789 5786 5783 5780 5777 5774 5772 5769 5766 5764 5761 5758 5756 5754 5754 5753 5752 5753 5753 5754 5756 5758 5761 5765 5769 5774 5778 5782
5817 5816 5814 5812 5810 5808 5806 5803 5801 5798 5795 5792 5789 5787 5783 5780 5777 5774 5771 5767 5764 5761 5758 5755 5753 5750 5747 5744 5742 5741 5741 5740 5740 5740 5740 5742 5744 5747 5750 5754 5758 5763 5768
5809 5807 5805 5803 5801 5799 5796 5794 5791 5789 5786 5783 5780 5777 5774 5771 5767 5764 5761 5757 5754 5751 5747 5744 5742 5739 5735 5732 5730 5729 5728 5728 5727 5727 5727 5728 5730 5732 5735 5739 5743 5748 5753
5800 5798 5796 5794 5792 5789 5787 5784 5781 5779 5776 5773 5770 5767 5764 5760 5757 5754 5750 5747 5743 5740 5737 5734 5731 5727 5724 5720 5718 5717 5716 5715 5715 5714 5714 5716 5716 5719 5721 5724 5729 5733 5738
5790 5788 5786 5784 5782 5779 5776 5773 5770 5768 5766 5762 5759 5756 5753 5749 5746 5743 5739 5736 5732 5728 5725 5722 5719 5716 5712 5709 5706 5705 5704 5703 5703 5702 5702 5704 5704 5705 5708 5711 5715 5719 5724
5781 5778 5776 5773 5771 5768 5765 5761 5758 5756 5753 5751 5747 5744 5740 5738 5734 5730 5727 5724 5721 5716 5713 5710 5707 5704 5700 5697 5695 5693 5692 5691 5691 5690 5689 5691 5692 5693 5695 5698 5701 5705 5709
5769 5767 5764 5762 5759 5756 5753 5749 5745 5743 5740 5738 5734 5731 5728 5724 5721 5717 5714 5711 5708 5705 5701 5698 5694 5691 5688 5685 5683 5681 5680 5678 5678 5679 5677 5678 5679 5681 5684 5686 5688 5691 5695